Location: Madden
(51.3728°N, 114.3297°W)
Time: 06:42:49
(UTC+00:00)

PCSat - Pass Details

Date: 07 December 2023
Orbit: 784 x 791 km, 67.0° (Epoch: 02 March)

Event Time Altitude Azimuth Distance (km) Brightness Sun altitude
Exits shadow 13:08:23 36° 315° (NW) 1,224 10.1 -20.6°
Maximum altitude 13:08:39 37° 322° (NW) 1,220 10.1 -20.5°
Drops below altitude 10° 13:13:39 10° 29° (NNE) 2,362 12.2 -19.8°
Sets 13:16:16 0° 38° (NE) 3,296 13.1 -19.4°
